Time,TemperatureF,DewpointF,PressureIn,WindDirection,WindDirectionDegrees,WindSpeedMPH,WindSpeedGustMPH,Humidity,HourlyPrecipIn,Conditions,Clouds,dailyrainin,SoftwareType,DateUTC
2013-08-07 00:01:00,64.8,63.3,28.92,North,0,0.0,0.0,94,0.00,,,0.02,proprietary,2013-08-07 04:01:00,
2013-08-07 00:03:00,64.6,63.1,28.92,North,0,0.0,0.0,94,0.00,,,0.02,proprietary,2013-08-07 04:03:00,
2013-08-07 00:04:00,64.5,63.1,28.92,SE,143,1.0,1.6,94,0.00,,,0.02,proprietary,2013-08-07 04:04:00,
2013-08-07 00:05:00,64.5,63.1,28.92,SE,143,1.1,1.5,95,0.00,,,0.00,proprietary,2013-08-07 04:05:00,
2013-08-07 00:08:00,64.5,63.3,28.92,SE,143,1.5,2.0,95,0.00,,,0.00,proprietary,2013-08-07 04:08:00,
2013-08-07 00:13:00,64.4,63.2,28.92,North,0,0.0,0.0,95,0.00,,,0.00,proprietary,2013-08-07 04:13:00,
2013-08-07 00:19:00,64.7,63.7,28.92,North,0,0.0,0.0,96,0.00,,,0.00,proprietary,2013-08-07 04:19:00,
2013-08-07 00:24:00,64.7,63.7,28.92,North,0,0.0,0.0,96,0.00,,,0.00,proprietary,2013-08-07 04:24:00,
2013-08-07 00:29:00,64.6,63.5,28.92,North,0,0.0,0.0,96,0.00,,,0.00,proprietary,2013-08-07 04:29:00,
2013-08-07 00:34:00,64.5,63.3,28.92,North,0,0.0,0.0,96,0.00,,,0.00,proprietary,2013-08-07 04:34:00,
2013-08-07 00:39:00,64.0,62.8,28.91,North,0,0.0,0.0,95,0.00,,,0.00,proprietary,2013-08-07 04:39:00,
2013-08-07 00:44:00,64.3,63.3,28.92,North,0,0.0,0.0,96,0.00,,,0.00,proprietary,2013-08-07 04:44:00,
2013-08-07 00:49:00,64.5,63.6,28.91,North,0,0.0,0.0,96,0.00,,,0.00,proprietary,2013-08-07 04:49:00,
2013-08-07 00:54:00,64.4,63.5,28.92,North,0,0.0,0.0,96,0.00,,,0.00,proprietary,2013-08-07 04:54:00,
2013-08-07 00:59:00,63.8,62.7,28.92,North,0,0.0,0.0,96,0.00,,,0.00,proprietary,2013-08-07 04:59:00,
2013-08-07 01:04:00,63.7,62.6,28.92,North,0,0.0,0.0,96,0.00,,,0.00,proprietary,2013-08-07 05:04:00,
2013-08-07 01:09:00,63.6,62.5,28.92,North,0,0.0,0.0,96,0.00,,,0.00,proprietary,2013-08-07 05:09:00,
2013-08-07 01:14:00,63.9,62.9,28.92,North,0,0.0,0.0,96,0.00,,,0.00,proprietary,2013-08-07 05:14:00,
2013-08-07 01:19:00,63.6,62.6,28.91,North,0,0.0,0.0,96,0.00,,,0.00,proprietary,2013-08-07 05:19:00,
2013-08-07 01:24:00,63.6,62.6,28.91,North,0,0.0,0.0,96,0.00,,,0.00,proprietary,2013-08-07 05:24:00,
2013-08-07 01:29:00,63.5,62.6,28.91,North,0,0.0,0.0,96,0.00,,,0.00,proprietary,2013-08-07 05:29:00,
2013-08-07 01:35:00,63.5,62.4,28.91,SE,143,1.9,2.0,96,0.00,,,0.00,proprietary,2013-08-07 05:35:00,
2013-08-07 01:40:00,63.4,62.4,28.91,SE,143,1.8,2.3,96,0.00,,,0.00,proprietary,2013-08-07 05:40:00,
2013-08-07 01:45:00,63.5,62.5,28.91,North,0,0.0,0.0,96,0.00,,,0.00,proprietary,2013-08-07 05:45:00,
2013-08-07 01:50:00,63.7,62.9,28.91,SE,143,1.6,2.0,97,0.00,,,0.00,proprietary,2013-08-07 05:50:00,
2013-08-07 01:56:00,64.0,63.2,28.90,SE,129,0.2,1.2,97,0.00,,,0.00,proprietary,2013-08-07 05:56:00,
2013-08-07 02:01:00,63.8,63.0,28.90,SE,143,2.1,2.5,97,0.00,,,0.00,proprietary,2013-08-07 06:01:00,
2013-08-07 02:06:00,63.8,63.0,28.90,SE,144,3.7,4.3,97,0.00,,,0.00,proprietary,2013-08-07 06:06:00,
2013-08-07 02:11:00,64.8,64.1,28.90,SSE,152,3.1,3.4,97,0.00,,,0.00,proprietary,2013-08-07 06:11:00,
2013-08-07 02:16:00,64.8,64.1,28.90,SSE,160,2.7,2.9,97,0.00,,,0.00,proprietary,2013-08-07 06:16:00,
2013-08-07 02:21:00,65.0,64.3,28.90,SSE,168,2.6,3.0,97,0.00,,,0.00,proprietary,2013-08-07 06:21:00,
2013-08-07 02:26:00,65.0,64.3,28.90,SSE,160,1.7,2.0,97,0.00,,,0.00,proprietary,2013-08-07 06:26:00,
2013-08-07 02:31:00,65.1,64.3,28.90,North,0,0.0,0.0,97,0.00,,,0.00,proprietary,2013-08-07 06:31:00,
2013-08-07 02:36:00,65.1,64.4,28.90,SE,134,1.6,1.8,97,0.00,,,0.00,proprietary,2013-08-07 06:36:00,
2013-08-07 02:41:00,64.9,64.1,28.90,SE,127,1.1,1.5,97,0.00,,,0.00,proprietary,2013-08-07 06:41:00,
2013-08-07 02:46:00,65.3,64.6,28.90,SE,136,1.1,1.9,97,0.00,,,0.00,proprietary,2013-08-07 06:46:00,
2013-08-07 02:51:00,65.1,64.3,28.90,North,0,0.0,0.0,97,0.00,,,0.00,proprietary,2013-08-07 06:51:00,
2013-08-07 02:56:00,65.4,64.7,28.90,North,0,0.0,0.0,97,0.00,,,0.00,proprietary,2013-08-07 06:56:00,
2013-08-07 03:02:00,65.3,64.6,28.90,North,0,0.0,0.0,97,0.00,,,0.00,proprietary,2013-08-07 07:02:00,
2013-08-07 03:07:00,65.2,64.4,28.90,North,0,0.0,0.0,97,0.00,,,0.00,proprietary,2013-08-07 07:07:00,
2013-08-07 03:12:00,64.7,63.9,28.90,North,0,0.0,0.0,96,0.00,,,0.00,proprietary,2013-08-07 07:12:00,
2013-08-07 03:17:00,64.1,63.2,28.90,North,0,0.0,0.0,96,0.00,,,0.00,proprietary,2013-08-07 07:17:00,
2013-08-07 03:22:00,64.0,63.2,28.90,SSE,152,0.3,1.3,97,0.00,,,0.00,proprietary,2013-08-07 07:22:00,
2013-08-07 03:28:00,63.7,62.9,28.90,SSE,165,2.6,2.9,97,0.00,,,0.00,proprietary,2013-08-07 07:28:00,
2013-08-07 03:33:00,63.7,62.9,28.90,South,172,2.0,2.1,97,0.00,,,0.00,proprietary,2013-08-07 07:33:00,
2013-08-07 03:38:00,63.6,62.8,28.89,South,171,1.6,1.7,97,0.00,,,0.00,proprietary,2013-08-07 07:38:00,
2013-08-07 03:43:00,63.5,62.8,28.89,South,171,1.6,1.9,97,0.00,,,0.00,proprietary,2013-08-07 07:43:00,
2013-08-07 03:48:00,63.3,62.6,28.89,North,0,0.0,0.0,97,0.00,,,0.00,proprietary,2013-08-07 07:48:00,
2013-08-07 03:53:00,63.8,63.2,28.89,SE,124,1.7,2.7,97,0.00,,,0.00,proprietary,2013-08-07 07:53:00,
2013-08-07 03:58:00,64.1,63.5,28.89,North,0,0.0,0.0,97,0.00,,,0.00,proprietary,2013-08-07 07:58:00,
2013-08-07 04:03:00,63.4,62.7,28.88,North,0,0.0,0.0,97,0.00,,,0.00,proprietary,2013-08-07 08:03:00,
2013-08-07 04:08:00,63.1,62.3,28.88,SSE,161,1.9,2.1,97,0.00,,,0.00,proprietary,2013-08-07 08:08:00,
2013-08-07 04:13:00,63.1,62.4,28.88,SE,143,2.3,2.5,97,0.00,,,0.00,proprietary,2013-08-07 08:13:00,
2013-08-07 04:18:00,63.1,62.5,28.88,SE,143,3.1,3.3,97,0.00,,,0.00,proprietary,2013-08-07 08:18:00,
2013-08-07 04:23:00,63.1,62.4,28.88,SSE,165,2.0,2.1,97,0.00,,,0.00,proprietary,2013-08-07 08:23:00,
2013-08-07 04:28:00,63.8,63.2,28.88,SE,146,3.1,3.6,98,0.00,,,0.00,proprietary,2013-08-07 08:28:00,
2013-08-07 04:33:00,64.0,63.5,28.88,SSE,153,2.7,3.1,98,0.00,,,0.00,proprietary,2013-08-07 08:33:00,
2013-08-07 04:38:00,63.8,63.1,28.88,SSE,162,2.8,3.3,97,0.00,,,0.00,proprietary,2013-08-07 08:38:00,
2013-08-07 04:43:00,64.0,63.4,28.88,SSE,153,2.9,3.2,97,0.00,,,0.00,proprietary,2013-08-07 08:43:00,
2013-08-07 04:48:00,63.9,63.3,28.87,SE,141,2.9,3.4,97,0.00,,,0.00,proprietary,2013-08-07 08:48:00,
2013-08-07 04:53:00,64.3,63.8,28.87,SE,136,3.0,3.6,98,0.00,,,0.00,proprietary,2013-08-07 08:53:00,
2013-08-07 04:58:00,64.2,63.6,28.87,SE,126,1.9,2.5,97,0.00,,,0.00,proprietary,2013-08-07 08:58:00,
2013-08-07 05:03:00,64.4,63.9,28.86,SE,130,2.1,2.8,98,0.00,,,0.00,proprietary,2013-08-07 09:03:00,
2013-08-07 05:08:00,64.6,64.0,28.86,SE,145,2.9,4.0,98,0.00,,,0.00,proprietary,2013-08-07 09:08:00,
2013-08-07 05:13:00,64.6,64.0,28.86,SSE,148,3.3,4.4,98,0.00,,,0.00,proprietary,2013-08-07 09:13:00,
2013-08-07 05:18:00,64.5,64.0,28.87,South,190,2.4,3.9,98,0.00,,,0.00,proprietary,2013-08-07 09:18:00,
2013-08-07 05:23:00,64.7,64.2,28.87,SSE,168,1.9,2.3,98,0.00,,,0.00,proprietary,2013-08-07 09:23:00,
2013-08-07 05:28:00,64.7,64.1,28.87,SE,143,2.1,2.4,98,0.00,,,0.00,proprietary,2013-08-07 09:28:00,
2013-08-07 05:33:00,64.3,63.7,28.87,SE,128,2.2,2.5,97,0.00,,,0.00,proprietary,2013-08-07 09:33:00,
2013-08-07 05:38:00,64.3,63.7,28.87,SE,145,3.4,4.0,97,0.00,,,0.00,proprietary,2013-08-07 09:38:00,
2013-08-07 05:43:00,64.0,63.3,28.87,SSE,152,3.2,3.8,97,0.00,,,0.00,proprietary,2013-08-07 09:43:00,
2013-08-07 05:48:00,64.1,63.5,28.87,SSE,147,2.4,3.1,97,0.00,,,0.00,proprietary,2013-08-07 09:48:00,
2013-08-07 05:53:00,64.2,63.7,28.87,SE,136,2.5,3.1,98,0.00,,,0.00,proprietary,2013-08-07 09:53:00,
2013-08-07 05:58:00,64.2,63.6,28.86,SE,137,0.9,1.5,97,0.00,,,0.00,proprietary,2013-08-07 09:58:00,
2013-08-07 06:03:00,64.2,63.7,28.87,ESE,102,1.1,1.6,97,0.00,,,0.00,proprietary,2013-08-07 10:03:00,
2013-08-07 06:09:00,63.7,63.1,28.87,ESE,109,0.2,1.2,97,0.00,,,0.00,proprietary,2013-08-07 10:09:00,
2013-08-07 06:14:00,64.0,63.4,28.87,North,0,0.0,0.0,98,0.00,,,0.00,proprietary,2013-08-07 10:14:00,
2013-08-07 06:19:00,63.8,63.3,28.87,North,0,0.0,0.0,98,0.00,,,0.00,proprietary,2013-08-07 10:19:00,
2013-08-07 06:24:00,63.4,62.8,28.87,SE,124,0.9,1.9,97,0.00,,,0.00,proprietary,2013-08-07 10:24:00,
2013-08-07 06:29:00,63.1,62.5,28.87,SSE,147,2.0,2.5,97,0.00,,,0.00,proprietary,2013-08-07 10:29:00,
2013-08-07 06:34:00,63.0,62.4,28.87,SSE,149,2.5,2.8,97,0.00,,,0.00,proprietary,2013-08-07 10:34:00,
2013-08-07 06:39:00,62.6,62.0,28.87,SSE,158,3.0,3.2,97,0.00,,,0.00,proprietary,2013-08-07 10:39:00,
2013-08-07 06:44:00,63.2,62.7,28.87,SSE,160,3.3,3.7,98,0.00,,,0.00,proprietary,2013-08-07 10:44:00,
2013-08-07 06:49:00,63.4,62.9,28.87,SSE,152,2.6,2.8,98,0.00,,,0.00,proprietary,2013-08-07 10:49:00,
2013-08-07 06:54:00,63.5,63.0,28.87,SE,144,2.9,3.2,98,0.00,,,0.00,proprietary,2013-08-07 10:54:00,
2013-08-07 06:59:00,63.6,63.2,28.87,SSE,154,1.7,2.0,98,0.00,,,0.00,proprietary,2013-08-07 10:59:00,
2013-08-07 07:04:00,63.6,63.1,28.87,South,171,0.1,1.1,98,0.00,,,0.00,proprietary,2013-08-07 11:04:00,
2013-08-07 07:09:00,63.2,62.7,28.87,North,0,0.0,0.0,98,0.00,,,0.00,proprietary,2013-08-07 11:09:00,
2013-08-07 07:14:00,63.2,62.8,28.87,North,0,0.0,0.0,98,0.00,,,0.00,proprietary,2013-08-07 11:14:00,
2013-08-07 07:19:00,63.3,62.8,28.87,NE,38,0.7,1.4,98,0.00,,,0.00,proprietary,2013-08-07 11:19:00,
2013-08-07 07:25:00,63.5,63.0,28.88,SE,127,0.7,2.0,98,0.00,,,0.00,proprietary,2013-08-07 11:25:00,
2013-08-07 07:30:00,64.0,63.5,28.88,SE,145,1.9,2.4,98,0.00,,,0.00,proprietary,2013-08-07 11:30:00,
2013-08-07 07:35:00,64.2,63.8,28.88,SSE,150,2.1,2.9,98,0.00,,,0.00,proprietary,2013-08-07 11:35:00,
2013-08-07 07:40:00,64.6,64.1,28.88,SSE,154,3.2,3.6,98,0.00,,,0.00,proprietary,2013-08-07 11:40:00,
2013-08-07 07:45:00,64.8,64.4,28.88,SSE,151,2.9,3.9,98,0.00,,,0.00,proprietary,2013-08-07 11:45:00,
2013-08-07 07:50:00,65.1,64.7,28.88,SSE,156,3.4,4.0,98,0.00,,,0.00,proprietary,2013-08-07 11:50:00,
2013-08-07 07:56:00,65.4,65.0,28.88,SSE,149,3.5,4.1,98,0.00,,,0.00,proprietary,2013-08-07 11:56:00,
2013-08-07 08:01:00,65.6,65.2,28.89,SE,144,3.7,4.2,98,0.00,,,0.00,proprietary,2013-08-07 12:01:00,
2013-08-07 08:06:00,65.8,65.3,28.89,SE,142,1.7,2.1,98,0.00,,,0.00,proprietary,2013-08-07 12:06:00,
2013-08-07 08:11:00,66.0,65.6,28.91,NNW,328,9.9,13.5,98,0.00,,,0.00,proprietary,2013-08-07 12:11:00,
2013-08-07 08:16:00,65.8,65.4,28.91,NNW,341,4.7,5.9,98,0.00,,,0.00,proprietary,2013-08-07 12:16:00,
2013-08-07 08:21:00,65.8,65.4,28.91,North,353,3.8,5.9,98,0.00,,,0.00,proprietary,2013-08-07 12:21:00,
2013-08-07 08:26:00,65.8,65.3,28.91,NNW,333,6.2,8.6,98,0.00,,,0.00,proprietary,2013-08-07 12:26:00,
2013-08-07 08:31:00,65.8,65.4,28.91,North,3,4.4,5.5,98,0.00,,,0.00,proprietary,2013-08-07 12:31:00,
2013-08-07 08:36:00,65.8,65.3,28.91,NNW,348,3.6,4.3,98,0.00,,,0.00,proprietary,2013-08-07 12:36:00,
2013-08-07 08:41:00,65.8,65.2,28.91,SE,146,0.8,1.5,97,0.00,,,0.00,proprietary,2013-08-07 12:41:00,
2013-08-07 08:46:00,65.7,64.8,28.91,North,0,0.0,0.0,96,0.00,,,0.00,proprietary,2013-08-07 12:46:00,
2013-08-07 08:51:00,66.1,64.4,28.92,North,0,0.0,0.0,94,0.00,,,0.00,proprietary,2013-08-07 12:51:00,
2013-08-07 08:56:00,66.2,64.3,28.92,North,0,0.0,0.0,93,0.00,,,0.00,proprietary,2013-08-07 12:56:00,
2013-08-07 09:01:00,66.6,64.3,28.93,SE,141,1.6,2.4,92,0.00,,,0.00,proprietary,2013-08-07 13:01:00,
2013-08-07 09:06:00,66.7,64.1,28.93,SE,138,3.1,3.9,91,0.00,,,0.00,proprietary,2013-08-07 13:06:00,
2013-08-07 09:11:00,66.8,64.4,28.92,North,0,0.0,0.0,92,0.00,,,0.00,proprietary,2013-08-07 13:11:00,
2013-08-07 09:16:00,66.7,64.1,28.91,ESE,106,0.4,1.3,91,0.00,,,0.00,proprietary,2013-08-07 13:16:00,
2013-08-07 09:21:00,66.5,63.8,28.92,SE,129,1.5,2.4,91,0.00,,,0.00,proprietary,2013-08-07 13:21:00,
2013-08-07 09:26:00,66.5,64.0,28.92,East,98,0.4,1.3,91,0.00,,,0.00,proprietary,2013-08-07 13:26:00,
2013-08-07 09:31:00,66.7,64.1,28.92,NNW,334,0.6,1.3,91,0.00,,,0.00,proprietary,2013-08-07 13:31:00,
2013-08-07 09:36:00,67.0,64.2,28.92,North,0,0.0,0.0,90,0.00,,,0.00,proprietary,2013-08-07 13:36:00,
2013-08-07 09:41:00,67.1,64.4,28.92,ESE,107,0.9,1.4,91,0.00,,,0.00,proprietary,2013-08-07 13:41:00,
2013-08-07 09:46:00,66.8,63.8,28.93,SW,218,1.9,3.0,89,0.00,,,0.00,proprietary,2013-08-07 13:46:00,
2013-08-07 09:51:00,66.9,64.4,28.93,South,188,1.7,2.0,91,0.00,,,0.00,proprietary,2013-08-07 13:51:00,
2013-08-07 09:56:00,66.7,64.3,28.93,South,170,2.3,2.5,91,0.00,,,0.00,proprietary,2013-08-07 13:56:00,
2013-08-07 10:01:00,66.6,64.5,28.93,North,0,0.0,0.0,92,0.00,,,0.00,proprietary,2013-08-07 14:01:00,
2013-08-07 10:07:00,66.4,64.3,28.93,NNE,33,1.6,1.8,92,0.00,,,0.00,proprietary,2013-08-07 14:07:00,
2013-08-07 10:12:00,66.3,64.4,28.93,WSW,245,1.8,2.6,93,0.00,,,0.00,proprietary,2013-08-07 14:12:00,
2013-08-07 10:17:00,66.2,64.7,28.93,North,0,0.0,0.0,94,0.00,,,0.00,proprietary,2013-08-07 14:17:00,
2013-08-07 10:22:00,66.1,64.8,28.95,WNW,290,1.7,2.2,95,0.00,,,0.00,proprietary,2013-08-07 14:22:00,
2013-08-07 10:27:00,65.9,64.7,28.96,NNW,331,1.7,2.4,95,0.01,,,0.01,proprietary,2013-08-07 14:27:00,
2013-08-07 10:32:00,65.8,64.5,28.95,North,353,2.4,3.2,95,0.01,,,0.01,proprietary,2013-08-07 14:32:00,
2013-08-07 10:37:00,65.6,64.0,28.95,NNW,348,2.4,2.7,94,0.03,,,0.03,proprietary,2013-08-07 14:37:00,
2013-08-07 10:42:00,65.7,63.7,28.95,North,0,0.0,0.0,93,0.03,,,0.03,proprietary,2013-08-07 14:42:00,
2013-08-07 10:47:00,65.9,63.5,28.96,NW,311,0.9,2.3,91,0.04,,,0.04,proprietary,2013-08-07 14:47:00,
2013-08-07 10:52:00,65.8,63.6,28.95,NNE,25,0.8,1.8,92,0.05,,,0.05,proprietary,2013-08-07 14:52:00,
2013-08-07 10:57:00,65.4,63.5,28.94,SE,137,3.7,3.9,93,0.06,,,0.06,proprietary,2013-08-07 14:57:00,
2013-08-07 11:02:00,65.1,63.6,28.94,SSE,160,3.0,3.5,94,0.09,,,0.09,proprietary,2013-08-07 15:02:00,
2013-08-07 11:07:00,65.0,63.6,28.93,North,0,0.0,0.0,95,0.11,,,0.11,proprietary,2013-08-07 15:07:00,
2013-08-07 11:12:00,64.9,63.7,28.93,SE,130,2.3,3.8,95,0.13,,,0.13,proprietary,2013-08-07 15:12:00,
2013-08-07 11:17:00,64.9,63.8,28.92,South,169,4.6,5.1,96,0.15,,,0.15,proprietary,2013-08-07 15:17:00,
2013-08-07 11:22:00,64.9,63.9,28.91,SSE,158,7.8,9.4,96,0.17,,,0.17,proprietary,2013-08-07 15:22:00,
2013-08-07 11:27:00,64.8,63.7,28.90,SSE,154,8.9,11.2,96,0.18,,,0.19,proprietary,2013-08-07 15:27:00,
2013-08-07 11:32:00,64.7,63.3,28.89,SSE,150,10.2,13.9,95,0.19,,,0.20,proprietary,2013-08-07 15:32:00,
2013-08-07 11:37:00,64.8,63.4,28.88,SE,145,8.0,10.4,95,0.18,,,0.21,proprietary,2013-08-07 15:37:00,
2013-08-07 11:42:00,65.0,63.6,28.88,South,169,7.4,9.4,95,0.18,,,0.21,proprietary,2013-08-07 15:42:00,
2013-08-07 11:47:00,65.3,63.9,28.89,SSW,192,4.6,7.5,94,0.18,,,0.22,proprietary,2013-08-07 15:47:00,
2013-08-07 11:52:00,65.5,63.7,28.89,SW,220,1.5,3.1,94,0.17,,,0.22,proprietary,2013-08-07 15:52:00,
2013-08-07 11:57:00,65.9,64.4,28.89,South,175,5.2,6.2,94,0.16,,,0.22,proprietary,2013-08-07 15:57:00,
2013-08-07 12:02:00,66.1,64.5,28.89,SSW,193,6.2,7.7,94,0.13,,,0.22,proprietary,2013-08-07 16:02:00,
2013-08-07 12:07:00,66.3,64.6,28.88,South,172,8.3,10.4,94,0.11,,,0.22,proprietary,2013-08-07 16:07:00,
2013-08-07 12:12:00,67.1,64.9,28.87,SSE,161,6.7,7.6,92,0.10,,,0.23,proprietary,2013-08-07 16:12:00,
2013-08-07 12:17:00,68.1,64.6,28.86,SSE,160,5.5,8.5,88,0.08,,,0.23,proprietary,2013-08-07 16:17:00,
2013-08-07 12:22:00,68.8,65.5,28.86,ESE,111,0.6,2.0,89,0.06,,,0.23,proprietary,2013-08-07 16:22:00,
2013-08-07 12:27:00,69.5,66.1,28.86,North,350,3.1,4.1,88,0.04,,,0.23,proprietary,2013-08-07 16:27:00,
2013-08-07 12:32:00,69.4,66.1,28.88,NW,322,4.1,4.7,89,0.03,,,0.23,proprietary,2013-08-07 16:32:00,
2013-08-07 12:37:00,69.5,65.4,28.88,NW,310,3.0,4.2,86,0.02,,,0.23,proprietary,2013-08-07 16:37:00,
2013-08-07 12:42:00,70.3,66.1,28.88,NW,304,1.7,3.8,86,0.03,,,0.24,proprietary,2013-08-07 16:42:00,
2013-08-07 12:47:00,70.6,66.4,28.88,SW,230,1.5,6.0,86,0.02,,,0.24,proprietary,2013-08-07 16:47:00,
2013-08-07 12:52:00,70.9,65.7,28.88,NW,317,0.3,1.5,83,0.02,,,0.24,proprietary,2013-08-07 16:52:00,
2013-08-07 12:57:00,71.1,66.0,28.88,SW,223,2.3,4.0,83,0.02,,,0.24,proprietary,2013-08-07 16:57:00,
2013-08-07 13:02:00,71.1,65.4,28.88,West,259,2.8,3.9,82,0.02,,,0.24,proprietary,2013-08-07 17:02:00,
2013-08-07 13:07:00,71.2,65.8,28.88,South,187,7.0,8.6,83,0.02,,,0.24,proprietary,2013-08-07 17:07:00,
2013-08-07 13:12:00,72.0,66.8,28.87,South,180,5.8,8.2,83,0.01,,,0.24,proprietary,2013-08-07 17:12:00,
2013-08-07 13:17:00,72.2,66.4,28.87,SSW,194,6.5,8.7,81,0.01,,,0.24,proprietary,2013-08-07 17:17:00,
2013-08-07 13:22:00,73.3,67.6,28.87,SSW,202,5.5,7.6,82,0.01,,,0.24,proprietary,2013-08-07 17:22:00,
2013-08-07 13:27:00,73.9,67.3,28.87,South,191,8.4,11.4,79,0.01,,,0.24,proprietary,2013-08-07 17:27:00,
2013-08-07 13:32:00,73.7,66.9,28.88,SSW,202,7.2,8.9,79,0.01,,,0.24,proprietary,2013-08-07 17:32:00,
2013-08-07 13:37:00,74.4,66.1,28.88,SSW,208,9.6,13.2,75,0.01,,,0.24,proprietary,2013-08-07 17:37:00,
2013-08-07 13:42:00,74.7,66.2,28.88,SSW,206,6.7,8.2,74,0.00,,,0.24,proprietary,2013-08-07 17:42:00,
2013-08-07 13:47:00,75.9,65.8,28.88,SSW,207,5.7,9.4,70,0.00,,,0.24,proprietary,2013-08-07 17:47:00,
2013-08-07 13:52:00,76.6,65.9,28.88,South,179,6.1,7.8,69,0.00,,,0.24,proprietary,2013-08-07 17:52:00,
2013-08-07 13:57:00,77.0,66.3,28.88,SSW,201,5.3,10.3,69,0.00,,,0.24,proprietary,2013-08-07 17:57:00,
2013-08-07 14:03:00,77.5,66.3,28.88,WSW,246,2.7,5.2,68,0.00,,,0.24,proprietary,2013-08-07 18:03:00,
2013-08-07 14:08:00,77.3,66.3,28.89,WSW,245,1.7,4.5,68,0.00,,,0.24,proprietary,2013-08-07 18:08:00,
2013-08-07 14:13:00,79.0,67.9,28.89,SW,214,5.9,8.1,68,0.00,,,0.24,proprietary,2013-08-07 18:13:00,
2013-08-07 14:18:00,78.3,68.0,28.89,NW,309,0.6,2.3,70,0.00,,,0.24,proprietary,2013-08-07 18:18:00,
2013-08-07 14:23:00,78.7,66.0,28.89,North,356,3.1,4.3,65,0.00,,,0.24,proprietary,2013-08-07 18:23:00,
2013-08-07 14:28:00,78.6,66.5,28.89,South,171,0.6,1.8,66,0.00,,,0.24,proprietary,2013-08-07 18:28:00,
2013-08-07 14:33:00,79.0,66.2,28.89,NNW,333,2.8,4.0,64,0.00,,,0.24,proprietary,2013-08-07 18:33:00,
2013-08-07 14:38:00,78.4,66.0,28.89,NNW,341,2.9,6.3,65,0.00,,,0.24,proprietary,2013-08-07 18:38:00,
2013-08-07 14:43:00,78.5,66.6,28.89,WNW,293,0.4,1.5,66,0.00,,,0.24,proprietary,2013-08-07 18:43:00,
2013-08-07 14:48:00,78.2,66.1,28.89,SSW,200,2.2,3.2,66,0.00,,,0.24,proprietary,2013-08-07 18:48:00,
2013-08-07 14:53:00,78.1,66.4,28.89,North,0,0.0,0.0,67,0.00,,,0.24,proprietary,2013-08-07 18:53:00,
2013-08-07 14:58:00,78.5,67.2,28.88,SSW,195,4.6,5.4,68,0.00,,,0.24,proprietary,2013-08-07 18:58:00,
2013-08-07 15:03:00,79.7,67.3,28.88,SSW,195,5.8,6.9,65,0.00,,,0.24,proprietary,2013-08-07 19:03:00,
2013-08-07 15:08:00,79.7,67.5,28.89,South,182,5.3,6.7,66,0.00,,,0.24,proprietary,2013-08-07 19:08:00,
2013-08-07 15:13:00,80.2,68.2,28.88,South,173,7.5,9.8,66,0.00,,,0.24,proprietary,2013-08-07 19:13:00,
2013-08-07 15:18:00,80.3,68.2,28.88,South,183,4.7,5.7,66,0.00,,,0.24,proprietary,2013-08-07 19:18:00,
2013-08-07 15:23:00,81.1,67.2,28.88,SSW,194,2.9,5.3,62,0.00,,,0.24,proprietary,2013-08-07 19:23:00,
2013-08-07 15:28:00,80.8,67.0,28.88,SW,218,3.0,6.7,62,0.00,,,0.24,proprietary,2013-08-07 19:28:00,
2013-08-07 15:33:00,81.8,67.4,28.88,SSW,201,5.4,7.5,61,0.00,,,0.24,proprietary,2013-08-07 19:33:00,
2013-08-07 15:38:00,81.7,67.7,28.88,SSW,192,6.1,7.3,62,0.00,,,0.24,proprietary,2013-08-07 19:38:00,
2013-08-07 15:43:00,81.0,67.4,28.88,SSW,196,9.7,12.4,63,0.00,,,0.24,proprietary,2013-08-07 19:43:00,
2013-08-07 15:48:00,80.2,66.8,28.88,South,189,7.5,9.3,63,0.00,,,0.24,proprietary,2013-08-07 19:48:00,
2013-08-07 15:53:00,80.9,67.7,28.88,SSW,197,7.4,9.7,64,0.00,,,0.24,proprietary,2013-08-07 19:53:00,
2013-08-07 15:58:00,81.2,67.9,28.88,SSW,205,7.6,11.6,64,0.00,,,0.24,proprietary,2013-08-07 19:58:00,
2013-08-07 16:03:00,81.6,68.0,28.88,SSW,193,7.6,12.6,63,0.00,,,0.24,proprietary,2013-08-07 20:03:00,
2013-08-07 16:08:00,80.9,67.8,28.88,SSW,203,4.7,5.9,64,0.00,,,0.24,proprietary,2013-08-07 20:08:00,
2013-08-07 16:13:00,80.2,67.7,28.88,SSW,200,4.3,6.3,65,0.00,,,0.24,proprietary,2013-08-07 20:13:00,
2013-08-07 16:18:00,80.9,68.4,28.88,SSW,211,3.5,6.2,65,0.00,,,0.24,proprietary,2013-08-07 20:18:00,
2013-08-07 16:23:00,81.8,68.2,28.87,SW,217,4.7,5.9,63,0.00,,,0.24,proprietary,2013-08-07 20:23:00,
2013-08-07 16:28:00,80.5,68.3,28.88,South,190,5.1,6.4,66,0.00,,,0.24,proprietary,2013-08-07 20:28:00,
2013-08-07 16:33:00,80.4,69.0,28.88,South,176,6.4,8.9,68,0.00,,,0.24,proprietary,2013-08-07 20:33:00,
2013-08-07 16:38:00,80.3,68.8,28.88,SSW,192,5.7,8.6,67,0.00,,,0.24,proprietary,2013-08-07 20:38:00,
2013-08-07 16:43:00,80.4,69.3,28.88,SSW,193,6.2,8.5,68,0.00,,,0.24,proprietary,2013-08-07 20:43:00,
2013-08-07 16:48:00,81.0,69.7,28.88,South,182,5.2,6.6,68,0.00,,,0.24,proprietary,2013-08-07 20:48:00,
2013-08-07 16:54:00,81.5,69.5,28.87,South,184,8.2,10.5,67,0.00,,,0.24,proprietary,2013-08-07 20:54:00,
2013-08-07 16:59:00,80.2,69.3,28.88,South,183,7.0,8.9,69,0.00,,,0.24,proprietary,2013-08-07 20:59:00,
2013-08-07 17:04:00,80.9,69.1,28.87,SSW,197,8.7,10.6,67,0.00,,,0.24,proprietary,2013-08-07 21:04:00,
2013-08-07 17:09:00,80.9,69.1,28.87,South,175,4.9,6.5,67,0.00,,,0.24,proprietary,2013-08-07 21:09:00,
2013-08-07 17:14:00,81.2,69.1,28.87,South,191,6.6,7.8,66,0.00,,,0.24,proprietary,2013-08-07 21:14:00,
2013-08-07 17:19:00,80.7,68.8,28.87,SSW,211,4.4,5.1,67,0.00,,,0.24,proprietary,2013-08-07 21:19:00,
2013-08-07 17:24:00,80.6,69.2,28.87,SSW,209,5.3,8.2,68,0.00,,,0.24,proprietary,2013-08-07 21:24:00,
2013-08-07 17:29:00,80.7,69.6,28.87,South,185,4.9,7.6,68,0.00,,,0.24,proprietary,2013-08-07 21:29:00,
2013-08-07 17:34:00,81.6,70.0,28.87,South,180,6.2,6.8,67,0.00,,,0.24,proprietary,2013-08-07 21:34:00,
2013-08-07 17:39:00,80.4,69.6,28.87,South,188,7.3,8.7,69,0.00,,,0.24,proprietary,2013-08-07 21:39:00,
2013-08-07 17:44:00,80.3,69.8,28.87,SSW,195,6.6,8.7,70,0.00,,,0.24,proprietary,2013-08-07 21:44:00,
2013-08-07 17:49:00,81.0,70.2,28.87,SSW,196,4.9,5.7,69,0.00,,,0.24,proprietary,2013-08-07 21:49:00,
2013-08-07 17:54:00,80.4,69.9,28.88,SSW,201,4.7,6.6,70,0.00,,,0.24,proprietary,2013-08-07 21:54:00,
2013-08-07 17:59:00,79.7,70.0,28.87,South,178,6.8,8.4,72,0.00,,,0.24,proprietary,2013-08-07 21:59:00,
2013-08-07 18:04:00,79.7,69.8,28.87,South,180,4.3,5.8,71,0.00,,,0.24,proprietary,2013-08-07 22:04:00,
2013-08-07 18:09:00,79.2,70.3,28.87,South,187,3.9,5.7,74,0.00,,,0.24,proprietary,2013-08-07 22:09:00,
2013-08-07 18:14:00,79.1,70.3,28.87,SSE,168,7.1,8.3,74,0.00,,,0.24,proprietary,2013-08-07 22:14:00,
2013-08-07 18:19:00,78.9,70.1,28.86,South,187,7.6,9.4,74,0.00,,,0.24,proprietary,2013-08-07 22:19:00,
2013-08-07 18:24:00,78.5,70.5,28.86,SSE,167,4.9,6.3,76,0.00,,,0.24,proprietary,2013-08-07 22:24:00,
2013-08-07 18:29:00,78.5,70.8,28.86,South,191,5.3,6.2,77,0.00,,,0.24,proprietary,2013-08-07 22:29:00,
2013-08-07 18:34:00,79.6,71.3,28.87,SSW,192,5.3,7.4,75,0.00,,,0.24,proprietary,2013-08-07 22:34:00,
2013-08-07 18:39:00,79.7,71.3,28.87,South,179,5.8,7.1,75,0.00,,,0.24,proprietary,2013-08-07 22:39:00,
2013-08-07 18:44:00,79.5,70.9,28.87,SSE,164,4.9,6.7,74,0.00,,,0.24,proprietary,2013-08-07 22:44:00,
2013-08-07 18:49:00,79.2,71.1,28.87,South,180,9.0,12.1,76,0.00,,,0.24,proprietary,2013-08-07 22:49:00,
2013-08-07 18:54:00,79.0,71.1,28.87,South,174,6.9,8.9,76,0.00,,,0.24,proprietary,2013-08-07 22:54:00,
2013-08-07 18:59:00,79.2,71.1,28.87,SSW,192,4.6,5.6,76,0.00,,,0.24,proprietary,2013-08-07 22:59:00,
2013-08-07 19:04:00,79.6,71.2,28.87,SSW,193,2.6,3.6,75,0.00,,,0.24,proprietary,2013-08-07 23:04:00,
2013-08-07 19:09:00,79.0,71.0,28.87,SSW,196,4.8,6.0,76,0.00,,,0.24,proprietary,2013-08-07 23:09:00,
2013-08-07 19:14:00,78.4,70.9,28.87,SSW,193,5.0,6.4,77,0.00,,,0.24,proprietary,2013-08-07 23:14:00,
2013-08-07 19:19:00,78.0,71.2,28.87,SW,219,3.9,5.5,79,0.00,,,0.24,proprietary,2013-08-07 23:19:00,
2013-08-07 19:24:00,78.1,71.2,28.87,SSW,197,2.9,3.6,79,0.00,,,0.24,proprietary,2013-08-07 23:24:00,
2013-08-07 19:29:00,78.0,71.4,28.87,South,189,5.6,7.8,80,0.00,,,0.24,proprietary,2013-08-07 23:29:00,
2013-08-07 19:34:00,77.9,71.2,28.87,South,181,4.4,5.1,79,0.00,,,0.24,proprietary,2013-08-07 23:34:00,
2013-08-07 19:39:00,78.2,71.4,28.87,South,180,3.6,4.2,79,0.00,,,0.24,proprietary,2013-08-07 23:39:00,
2013-08-07 19:45:00,78.7,71.5,28.87,South,190,4.9,5.9,78,0.00,,,0.24,proprietary,2013-08-07 23:45:00,
2013-08-07 19:50:00,78.4,71.3,28.87,South,182,5.6,7.1,78,0.00,,,0.24,proprietary,2013-08-07 23:50:00,
2013-08-07 19:55:00,78.2,71.4,28.87,South,186,4.4,7.3,79,0.00,,,0.24,proprietary,2013-08-07 23:55:00,
2013-08-07 20:00:00,78.1,71.2,28.87,South,187,4.6,5.8,79,0.00,,,0.24,proprietary,2013-08-08 00:00:00,
2013-08-07 20:05:00,77.9,71.4,28.87,South,181,3.8,4.2,80,0.00,,,0.24,proprietary,2013-08-08 00:05:00,
2013-08-07 20:10:00,77.8,71.5,28.87,SSW,198,3.8,4.7,80,0.00,,,0.24,proprietary,2013-08-08 00:10:00,
2013-08-07 20:15:00,77.7,71.5,28.87,SSW,192,3.1,4.2,81,0.00,,,0.24,proprietary,2013-08-08 00:15:00,
2013-08-07 20:20:00,77.6,71.6,28.88,North,0,0.0,0.0,81,0.00,,,0.24,proprietary,2013-08-08 00:20:00,
2013-08-07 20:25:00,77.3,71.6,28.88,SSW,193,2.0,2.2,82,0.00,,,0.24,proprietary,2013-08-08 00:25:00,
2013-08-07 20:30:00,77.0,71.6,28.88,SSW,196,2.2,2.7,83,0.00,,,0.24,proprietary,2013-08-08 00:30:00,
2013-08-07 20:35:00,76.7,71.6,28.88,SSW,193,0.9,1.7,84,0.00,,,0.24,proprietary,2013-08-08 00:35:00,
2013-08-07 20:40:00,76.5,71.5,28.88,North,0,0.0,0.0,84,0.00,,,0.24,proprietary,2013-08-08 00:40:00,
2013-08-07 20:45:00,76.2,71.5,28.88,North,0,0.0,0.0,85,0.00,,,0.24,proprietary,2013-08-08 00:45:00,
2013-08-07 20:50:00,75.7,71.4,28.88,SSW,194,0.7,1.6,86,0.00,,,0.24,proprietary,2013-08-08 00:50:00,
2013-08-07 20:55:00,75.4,71.6,28.88,North,0,0.0,0.0,87,0.00,,,0.24,proprietary,2013-08-08 00:55:00,
2013-08-07 21:00:00,74.9,71.4,28.88,North,0,0.0,0.0,88,0.00,,,0.24,proprietary,2013-08-08 01:00:00,
2013-08-07 21:05:00,74.5,71.2,28.89,North,0,0.0,0.0,89,0.00,,,0.24,proprietary,2013-08-08 01:05:00,
2013-08-07 21:11:00,73.7,71.0,28.88,North,0,0.0,0.0,91,0.00,,,0.24,proprietary,2013-08-08 01:11:00,
2013-08-07 21:16:00,73.1,70.9,28.89,North,0,0.0,0.0,92,0.00,,,0.24,proprietary,2013-08-08 01:16:00,
2013-08-07 21:21:00,72.7,70.4,28.89,North,0,0.0,0.0,92,0.00,,,0.24,proprietary,2013-08-08 01:21:00,
2013-08-07 21:26:00,72.6,70.7,28.89,South,184,1.7,1.8,93,0.00,,,0.24,proprietary,2013-08-08 01:26:00,
2013-08-07 21:31:00,72.5,70.6,28.89,South,183,1.7,1.9,93,0.00,,,0.24,proprietary,2013-08-08 01:31:00,
2013-08-07 21:36:00,72.3,70.6,28.89,South,183,1.9,2.1,94,0.00,,,0.24,proprietary,2013-08-08 01:36:00,
2013-08-07 21:41:00,72.2,70.7,28.89,South,183,2.0,2.1,94,0.00,,,0.24,proprietary,2013-08-08 01:41:00,
2013-08-07 21:46:00,72.2,70.8,28.89,South,183,0.4,1.2,95,0.00,,,0.24,proprietary,2013-08-08 01:46:00,
2013-08-07 21:51:00,72.2,70.7,28.89,North,0,0.0,0.0,94,0.00,,,0.24,proprietary,2013-08-08 01:51:00,
2013-08-07 21:56:00,72.1,70.6,28.90,North,0,0.0,0.0,95,0.00,,,0.24,proprietary,2013-08-08 01:56:00,
2013-08-07 22:01:00,71.7,70.0,28.90,North,0,0.0,0.0,94,0.00,,,0.24,proprietary,2013-08-08 02:01:00,
2013-08-07 22:06:00,71.2,69.3,28.90,North,0,0.0,0.0,93,0.00,,,0.24,proprietary,2013-08-08 02:06:00,
2013-08-07 22:11:00,71.2,69.7,28.91,North,0,0.0,0.0,94,0.00,,,0.24,proprietary,2013-08-08 02:11:00,
2013-08-07 22:16:00,71.2,69.7,28.91,North,0,0.0,0.0,95,0.00,,,0.24,proprietary,2013-08-08 02:16:00,
2013-08-07 22:21:00,70.9,69.4,28.91,North,0,0.0,0.0,95,0.00,,,0.24,proprietary,2013-08-08 02:21:00,
2013-08-07 22:26:00,71.0,69.7,28.92,South,183,0.7,1.6,95,0.00,,,0.24,proprietary,2013-08-08 02:26:00,
2013-08-07 22:32:00,71.5,70.3,28.92,NW,307,1.8,1.9,95,0.00,,,0.24,proprietary,2013-08-08 02:32:00,
2013-08-07 22:37:00,71.6,70.3,28.92,North,0,0.0,0.0,95,0.00,,,0.24,proprietary,2013-08-08 02:37:00,
2013-08-07 22:42:00,71.4,69.9,28.92,North,0,0.0,0.0,95,0.00,,,0.24,proprietary,2013-08-08 02:42:00,
2013-08-07 22:47:00,71.4,70.1,28.92,North,0,0.0,0.0,95,0.00,,,0.24,proprietary,2013-08-08 02:47:00,
2013-08-07 22:52:00,71.9,70.5,28.93,SW,215,0.3,1.4,95,0.00,,,0.24,proprietary,2013-08-08 02:52:00,
2013-08-07 22:57:00,71.9,70.3,28.93,North,6,2.7,3.0,94,0.00,,,0.24,proprietary,2013-08-08 02:57:00,
2013-08-07 23:02:00,72.2,70.7,28.93,NNW,333,2.8,3.2,94,0.00,,,0.24,proprietary,2013-08-08 03:02:00,
2013-08-07 23:07:00,72.7,70.7,28.93,NNW,327,1.7,2.0,93,0.00,,,0.24,proprietary,2013-08-08 03:07:00,
2013-08-07 23:12:00,72.8,70.5,28.93,NW,323,2.9,3.3,92,0.00,,,0.24,proprietary,2013-08-08 03:12:00,
2013-08-07 23:18:00,72.8,70.4,28.93,NW,324,2.2,2.5,92,0.00,,,0.24,proprietary,2013-08-08 03:18:00,
2013-08-07 23:24:00,72.6,70.1,28.93,NW,317,0.6,1.6,91,0.00,,,0.24,proprietary,2013-08-08 03:24:00,
2013-08-07 23:29:00,71.8,69.5,28.93,North,0,0.0,0.0,92,0.00,,,0.24,proprietary,2013-08-08 03:29:00,
2013-08-07 23:34:00,71.2,69.3,28.93,North,0,0.0,0.0,93,0.00,,,0.24,proprietary,2013-08-08 03:34:00,
2013-08-07 23:40:00,71.0,69.2,28.93,NW,317,0.5,1.4,93,0.00,,,0.24,proprietary,2013-08-08 03:40:00,
2013-08-07 23:45:00,70.7,68.9,28.93,North,0,0.0,0.0,94,0.00,,,0.24,proprietary,2013-08-08 03:45:00,
2013-08-07 23:50:00,70.2,68.4,28.93,North,0,0.0,0.0,94,0.00,,,0.24,proprietary,2013-08-08 03:50:00,
2013-08-07 23:55:00,69.9,68.3,28.93,North,0,0.0,0.0,94,0.00,,,0.24,proprietary,2013-08-08 03:55:00,